�������l�o���
Date,Time,MP-1(��Sv/h),MP-2(��Sv/h),MP-3(��Sv/h),MP-4(��Sv/h),MP-5(��Sv/h),MP-6(��Sv/h),MP-7(��Sv/h),MP-8(��Sv/h),����,����(m/s),���J
2013/03/11,00:00,3.1,5.8,6.8,6.1,6.5,2.6,6.1,4.0,���k��,14.8,��
2013/03/11,00:10,3.1,5.8,6.8,6.1,6.5,2.6,6.1,4.0,���k��,14.2,��
2013/03/11,00:20,3.1,5.8,6.8,6.1,6.5,2.6,6.1,4.0,���k��,13.7,��
2013/03/11,00:30,3.1,5.8,6.8,6.1,6.5,2.6,6.1,4.0,���k��,12.1,��
2013/03/11,00:40,3.1,5.8,6.8,6.1,6.5,2.6,6.1,4.0,���k��,14.6,��
2013/03/11,00:50,3.1,5.8,6.8,6.1,6.5,2.6,6.1,4.0,���k��,10.8,��
2013/03/11,01:00,3.1,5.8,6.8,6.1,6.5,2.6,6.1,4.0,�k��,10.1,��
2013/03/11,01:10,3.1,5.8,6.8,6.1,6.5,2.6,6.1,4.0,�k��,4.2,��
2013/03/11,01:20,3.1,5.8,6.8,6.1,6.5,2.6,6.1,4.0,�k�k��,5.3,��
2013/03/11,01:30,3.1,5.7,6.8,6.1,6.5,2.6,6.0,4.0,�k,6.9,��
2013/03/11,01:40,3.1,5.7,6.8,6.1,6.5,2.6,6.0,4.0,�k,7.3,��
2013/03/11,01:50,3.1,5.8,6.8,6.1,6.5,2.6,6.1,4.0,�k,8.4,��
2013/03/11,02:00,3.1,5.7,6.8,6.1,6.5,2.6,6.1,4.0,�k,8.9,��
2013/03/11,02:10,3.1,5.7,6.8,6.1,6.5,2.6,6.0,4.0,�k,9.8,��
2013/03/11,02:20,3.1,5.7,6.8,6.1,6.5,2.6,6.1,4.0,�k,9.6,��
2013/03/11,02:30,3.1,5.7,6.8,6.1,6.5,2.6,6.1,4.0,��쓌,7.9,��
2013/03/11,02:40,3.1,5.7,6.8,6.1,6.5,2.6,6.0,4.0,�k,9.1,��
2013/03/11,02:50,3.1,5.7,6.8,6.1,6.5,2.6,6.1,4.0,�k,9.5,��
2013/03/11,03:00,3.1,5.7,6.8,6.1,6.5,2.6,6.0,4.0,�k,9.5,��
2013/03/11,03:10,3.1,5.7,6.8,6.1,6.5,2.6,6.1,4.0,�k�k��,9.6,��
2013/03/11,03:20,3.1,5.7,6.8,6.1,6.5,2.6,6.1,4.0,�k�k��,9.3,��
2013/03/11,03:30,3.1,5.7,6.8,6.1,6.5,2.6,6.1,4.0,�k�k��,10.2,��
2013/03/11,03:40,3.1,5.7,6.8,6.1,6.5,2.6,6.1,4.0,�k�k��,9.1,��
2013/03/11,03:50,3.1,5.7,6.8,6.1,6.5,2.6,6.1,4.0,�k�k��,8.2,��
2013/03/11,04:00,3.1,5.7,6.8,6.1,6.5,2.6,6.1,4.0,�k�k��,7.6,��
2013/03/11,04:10,3.1,5.7,6.8,6.1,6.5,2.6,6.1,4.0,�k,8.2,��
2013/03/11,04:20,3.1,5.7,6.8,6.1,6.5,2.6,6.1,4.0,�k�k��,7.7,��
2013/03/11,04:30,3.1,5.7,6.8,6.1,6.5,2.6,6.1,4.0,�k�k��,7.8,��
2013/03/11,04:40,3.1,5.7,6.8,6.1,6.5,2.6,6.0,4.0,�k�k��,7.4,��
2013/03/11,04:50,3.1,5.7,6.8,6.1,6.5,2.6,6.0,4.0,�k�k��,5.2,��
2013/03/11,05:00,3.1,5.7,6.8,6.1,6.5,2.6,6.0,4.0,�k�k��,5.3,��
2013/03/11,05:10,3.1,5.7,6.8,6.1,6.5,2.6,6.0,4.0,�k�k��,5.6,��
2013/03/11,05:20,3.1,5.7,6.8,6.1,6.5,2.6,6.1,4.0,�k�k��,8.3,��
2013/03/11,05:30,3.1,5.7,6.8,6.1,6.5,2.6,6.1,4.0,�k�k��,8.2,��
2013/03/11,05:40,3.1,5.7,6.8,6.1,6.5,2.6,6.0,4.0,�k�k��,6.6,��
2013/03/11,05:50,3.1,5.7,6.8,6.1,6.5,2.6,6.0,4.0,�k�k��,9.3,��
2013/03/11,06:00,3.1,5.7,6.8,6.1,6.5,2.6,6.0,4.0,�k�k��,7.9,��
2013/03/11,06:10,3.1,5.7,6.8,6.1,6.5,2.6,6.0,4.0,�k�k��,8.3,��
2013/03/11,06:20,3.1,5.7,6.8,6.1,6.5,2.6,6.0,4.0,�k�k��,10.7,��
2013/03/11,06:30,3.1,5.7,6.8,6.1,6.4,2.6,6.0,4.0,�k�k��,9.6,��
2013/03/11,06:40,3.1,5.7,6.8,6.1,6.5,2.6,6.0,4.0,�k�k��,10.2,��
2013/03/11,06:50,3.1,5.7,6.8,6.1,6.5,2.6,6.0,4.0,�k��,7.9,��
2013/03/11,07:00,3.1,5.7,6.8,6.1,6.5,2.6,6.0,4.0,�k��,6.5,��
2013/03/11,07:10,3.1,5.7,6.8,6.1,6.5,2.6,6.0,4.0,�k��,7.7,��
2013/03/11,07:20,3.1,5.7,6.8,6.1,6.5,2.6,6.0,4.0,�k��,6.8,��
2013/03/11,07:30,3.1,5.7,6.8,6.1,6.5,2.6,6.0,4.0,�k��,7.8,��
2013/03/11,07:40,3.1,5.7,6.8,6.1,6.5,2.6,6.1,4.0,�k��,7.4,��
2013/03/11,07:50,3.1,5.7,6.8,6.1,6.5,2.6,6.1,4.0,���k��,7.2,��
2013/03/11,08:00,3.1,5.7,6.8,6.1,6.5,2.6,6.1,4.0,���k��,8.0,��
2013/03/11,08:10,3.1,5.8,6.8,6.1,6.5,2.6,6.0,4.0,�k��,9.6,��
2013/03/11,08:20,3.1,5.8,6.8,6.1,6.5,2.6,6.1,4.0,�k��,10.7,��
2013/03/11,08:30,-,5.8,6.8,6.1,6.5,2.6,6.1,4.0,���k��,9.0,��
2013/03/11,08:40,-,5.8,6.8,6.1,6.5,2.6,6.0,4.0,�k��,8.8,��
2013/03/11,08:50,-,5.8,6.8,6.1,6.5,2.6,6.0,4.0,���k��,6.7,��
2013/03/11,09:00,-,5.8,6.8,6.1,6.5,2.6,6.0,4.0,�k��,6.0,��
2013/03/11,09:10,-,5.8,6.8,6.1,6.5,2.6,6.0,4.0,�k��,7.4,��
2013/03/11,09:20,-,5.8,6.8,6.1,6.5,2.6,6.0,4.0,�k��,8.2,��
2013/03/11,09:30,-,5.8,6.8,6.1,6.5,2.6,6.0,4.0,�k��,8.2,��
2013/03/11,09:40,-,5.8,6.8,6.1,6.5,2.6,6.0,4.0,�k�k��,7.7,��
2013/03/11,09:50,-,5.8,6.8,6.1,6.5,2.6,6.0,4.0,�k�k��,6.4,��
2013/03/11,10:00,-,5.8,6.8,6.1,6.5,2.6,6.0,4.0,�k��,7.9,��
2013/03/11,10:10,-,5.8,6.8,6.1,6.5,2.6,6.0,4.0,�k�k��,5.8,��
2013/03/11,10:20,-,5.8,6.8,6.1,6.5,2.6,6.0,4.0,�k�k��,5.7,��
2013/03/11,10:30,-,5.8,6.8,6.2,6.5,2.6,6.1,4.0,�k�k��,6.5,��
2013/03/11,10:40,-,5.8,6.8,6.2,6.5,2.6,6.0,4.0,�k,6.3,��
2013/03/11,10:50,-,5.8,6.8,6.1,6.5,2.6,6.0,4.0,�k,5.5,��
2013/03/11,11:00,-,5.8,6.8,6.1,6.5,2.6,6.0,4.0,�k,7.1,��
2013/03/11,11:10,-,5.8,6.8,6.1,6.5,2.6,6.0,4.0,�k�k��,5.1,��
2013/03/11,11:20,-,5.8,6.8,6.2,6.5,2.6,6.0,4.0,�k�k��,5.1,��
2013/03/11,11:30,-,5.8,6.8,6.2,6.5,2.6,6.0,4.0,�k�k��,7.1,��
2013/03/11,11:40,-,5.8,6.8,6.2,6.5,2.6,6.0,4.0,�k�k��,4.3,��
2013/03/11,11:50,-,5.8,6.8,6.1,6.5,2.6,6.1,4.0,�k,5.6,��
2013/03/11,12:00,-,5.8,6.8,6.1,6.5,2.6,6.1,4.0,�k�k��,2.9,��
2013/03/11,12:10,-,5.8,6.8,6.1,6.5,2.6,6.0,4.0,�k�k��,2.8,��
2013/03/11,12:20,-,5.8,6.8,6.2,6.5,2.6,6.1,4.0,���쐼,1.1,��
2013/03/11,12:30,-,5.8,6.8,6.2,6.5,2.6,6.1,4.0,��쐼,3.6,��
2013/03/11,12:40,-,5.8,6.8,6.2,6.5,2.6,6.1,4.0,�쐼,5.3,��
2013/03/11,12:50,-,5.8,6.8,6.2,6.5,2.6,6.1,4.0,�쐼,5.7,��
2013/03/11,13:00,-,5.8,6.8,6.2,6.5,2.6,6.1,4.0,���쐼,5.5,��
2013/03/11,13:10,3.1,5.8,6.8,6.2,6.5,2.6,6.1,4.0,���쐼,3.6,��
2013/03/11,13:20,3.1,5.8,6.8,6.2,6.5,2.6,6.1,4.0,���쐼,6.1,��
2013/03/11,13:30,3.1,-,6.8,6.2,6.5,2.6,6.1,4.0,��,6.9,��
2013/03/11,13:40,3.1,-,6.8,6.2,6.5,2.6,6.1,4.0,���쐼,8.8,��
2013/03/11,13:50,3.1,-,6.8,6.2,6.5,2.6,6.1,4.0,���쐼,7.5,��
2013/03/11,14:00,3.1,-,6.8,6.2,6.5,2.6,6.1,4.0,���쐼,8.2,��
2013/03/11,14:10,3.1,-,6.8,6.2,6.5,2.6,6.1,4.0,��,8.0,��
2013/03/11,14:20,3.1,-,6.8,6.2,6.5,2.6,6.0,4.0,��,9.4,��
2013/03/11,14:30,3.1,-,6.8,6.2,6.5,2.6,6.1,4.0,��,9.7,��
2013/03/11,14:40,3.1,-,6.8,6.2,6.5,2.6,6.1,4.0,���쐼,10.4,��
2013/03/11,14:50,3.1,-,6.8,6.2,6.5,2.6,6.1,4.0,���쐼,10.7,��
2013/03/11,15:00,3.1,-,6.8,6.2,6.5,2.6,6.1,4.0,���쐼,11.0,��
2013/03/11,15:10,3.1,-,6.8,6.2,6.5,2.6,6.1,4.0,���쐼,11.3,��
2013/03/11,15:20,3.1,-,6.8,6.2,6.5,2.6,6.1,4.0,���쐼,14.3,��
2013/03/11,15:30,3.1,-,6.8,6.2,6.5,2.6,6.1,4.0,���쐼,12.7,��
2013/03/11,15:40,3.1,-,6.8,6.2,6.5,2.6,6.1,4.0,��,14.3,��
2013/03/11,15:50,3.1,-,6.8,6.2,6.5,2.6,6.1,4.0,��,14.1,��
2013/03/11,16:00,3.1,-,6.8,6.2,6.5,2.6,6.1,4.0,��,14.3,��
2013/03/11,16:10,3.1,-,6.8,6.2,6.5,2.6,6.1,4.0,��,11.8,��
2013/03/11,16:20,3.1,-,6.8,6.2,6.5,2.6,6.1,4.0,��,14.3,��
2013/03/11,16:30,3.1,-,6.8,6.2,6.5,2.6,6.1,4.0,��,10.4,��
2013/03/11,16:40,3.1,-,6.8,6.2,6.5,2.6,6.1,4.0,��,11.6,��
2013/03/11,16:50,3.1,5.8,6.8,6.1,6.5,2.6,6.1,4.0,��,11.2,��
2013/03/11,17:00,3.1,5.8,6.8,6.2,6.5,2.6,6.1,4.0,���k��,10.7,��
2013/03/11,17:10,3.1,5.8,6.8,6.2,6.5,2.6,6.1,4.0,���k��,11.5,��
2013/03/11,17:20,3.1,5.8,6.8,6.1,6.5,2.6,6.1,4.0,���k��,10.4,��
2013/03/11,17:30,3.1,5.8,6.8,6.1,6.5,2.6,6.1,4.0,���k��,9.6,��
2013/03/11,17:40,3.1,5.8,6.8,6.1,6.5,2.6,6.1,4.0,���k��,8.5,��
2013/03/11,17:50,3.1,5.8,6.8,6.1,6.5,2.6,6.1,4.0,���k��,8.0,��
2013/03/11,18:00,3.1,5.8,6.8,6.1,6.5,2.6,6.1,4.0,���k��,5.8,��
2013/03/11,18:10,3.1,5.8,6.8,6.1,6.5,2.6,6.1,4.0,���k��,6.3,��
2013/03/11,18:20,3.1,5.8,6.8,6.1,6.5,2.6,6.1,4.0,��,6.6,��
2013/03/11,18:30,3.1,5.8,6.8,6.1,6.5,2.6,6.1,4.0,���k��,6.5,��
2013/03/11,18:40,3.1,5.8,6.8,6.1,6.5,2.6,6.1,4.0,��,4.9,��
2013/03/11,18:50,3.1,5.8,6.8,6.1,6.5,2.6,6.1,4.0,��,3.8,��
2013/03/11,19:00,3.1,5.8,6.8,6.1,6.5,2.6,6.1,4.0,��,4.3,��
2013/03/11,19:10,3.1,5.8,6.8,6.1,6.5,2.6,6.1,4.0,��,4.1,��
2013/03/11,19:20,3.1,5.8,6.8,6.1,6.5,2.6,6.1,4.0,��,7.1,��
2013/03/11,19:30,3.1,5.8,6.8,6.1,6.5,2.6,6.1,4.0,��,7.4,��
2013/03/11,19:40,3.1,5.8,6.8,6.1,6.5,2.6,6.1,4.0,��,9.0,��
2013/03/11,19:50,3.1,5.8,6.8,6.1,6.5,2.6,6.1,4.0,��,10.2,��
2013/03/11,20:00,3.1,5.8,6.8,6.1,6.5,2.6,6.1,4.0,��,11.0,��
2013/03/11,20:10,3.1,5.8,6.8,6.1,6.5,2.6,6.1,4.0,��,12.9,��
2013/03/11,20:20,3.1,5.8,6.8,6.1,6.5,2.6,6.1,4.0,��,11.0,��
2013/03/11,20:30,3.1,5.8,6.8,6.1,6.5,2.6,6.1,4.0,��,9.7,��
2013/03/11,20:40,3.1,5.8,6.8,6.1,6.5,2.6,6.1,4.0,��,8.0,��
2013/03/11,20:50,3.1,5.7,6.8,6.1,6.5,2.6,6.1,4.0,��,9.3,��
2013/03/11,21:00,3.1,5.8,6.8,6.1,6.5,2.6,6.1,4.0,��,9.6,��
2013/03/11,21:10,3.1,5.8,6.8,6.1,6.5,2.6,6.1,4.0,��,9.3,��
2013/03/11,21:20,3.1,5.8,6.8,6.1,6.5,2.6,6.1,4.0,��,9.0,��
2013/03/11,21:30,3.1,5.8,6.8,6.1,6.5,2.6,6.1,4.0,���k��,8.6,��
2013/03/11,21:40,3.1,5.8,6.8,6.1,6.5,2.6,6.1,4.0,���k��,7.5,��
2013/03/11,21:50,3.1,5.7,6.8,6.1,6.5,2.6,6.1,4.0,��,7.7,��
2013/03/11,22:00,3.1,5.8,6.8,6.1,6.5,2.6,6.1,4.0,��,6.1,��
2013/03/11,22:10,3.1,5.7,6.8,6.1,6.5,2.6,6.1,4.0,���k��,6.0,��
2013/03/11,22:20,3.1,5.8,6.8,6.1,6.5,2.6,6.0,4.0,���k��,4.7,��
2013/03/11,22:30,3.1,5.7,6.8,6.1,6.5,2.6,6.1,4.0,��,4.2,��
2013/03/11,22:40,3.1,5.8,6.8,6.1,6.5,2.6,6.1,4.0,��,4.3,��
2013/03/11,22:50,3.1,5.8,6.8,6.1,6.5,2.6,6.1,4.0,���쐼,4.5,��
2013/03/11,23:00,3.1,5.8,6.8,6.1,6.5,2.6,6.1,4.0,���쐼,4.0,��
2013/03/11,23:10,3.1,5.7,6.8,6.1,6.5,2.6,6.1,4.0,�쐼,5.7,��
2013/03/11,23:20,3.1,5.7,6.8,6.1,6.5,2.6,6.1,4.0,�쐼,3.7,��
2013/03/11,23:30,3.1,5.7,6.8,6.1,6.5,2.6,6.1,4.0,���쐼,5.4,��
2013/03/11,23:40,3.1,5.7,6.8,6.1,6.5,2.6,6.0,4.0,���쐼,4.8,��
2013/03/11,23:50,3.1,5.7,6.8,6.1,6.5,2.6,6.0,4.0,��,7.1,��
